Home   Weather   Fairfield   Past weeks
Flag for USA

Past Weather in Fairfield, New Jersey, USA — Yesterday and Last 2 Weeks

Now
34 °F

Clear.


Feels Like: 26 °F
Forecast: 39 / 25 °F
Wind: 10 mph from Northwest

Location: Belmar-Farmdale

Current Time: Dec 7, 2019 at 4:13:05 am

Latest Report: Dec 7, 2019 at 2:56 am


Visibility: 10 mi

Pressure: 30.23 "Hg

Humidity: 56%

Dew Point: 20 °F

Location of FairfieldLocation

Past Weather in Fairfield — Graph

°F

Fairfield Temperature Yesterday

Maximum temperature yesterday: 50 °F (at 1:56 pm)
Minimum temperature yesterday: 31 °F (at 6:56 am)
Average temperature yesterday: 41 °F

High & Low Weather Summary for the Past Weeks

 TemperatureHumidityPressure
High63 °F (Nov 26, 1:56 pm)100% (Nov 24, 12:13 am)30.24 "Hg (Nov 24, 12:13 am)
Low29 °F (Nov 23, 6:56 am)30% (Nov 30, 1:56 pm)29.27 "Hg (Nov 24, 8:34 am)
Average40 °F75%29.80 "Hg
* Reported Nov 22 2:56 am — Dec 7 2:56 am, Fairfield. Weather by CustomWeather, © 2019

Note: Actual official high and low records may vary slightly from our data, if they occured in-between our weather recording intervals... More about our weather records

Fairfield Weather History for the Previous 24 Hours

Scroll right to see more
 ConditionsComfort  
Time TempWeatherWind HumidityBarometerVisibility
2:56 am
Sat, Dec 7
34 °FClear.10 mph56%30.23 "Hg10 mi
1:56 am35 °FClear.12 mph56%30.21 "Hg10 mi
12:56 am36 °FClear.15 mph57%30.18 "Hg10 mi
11:56 pm
Fri, Dec 6
38 °FClear.12 mph60%30.16 "Hg10 mi
10:56 pm40 °FPassing clouds.12 mph60%30.14 "Hg10 mi
9:56 pm44 °FOvercast.14 mph60%30.11 "Hg10 mi
8:56 pm47 °FOvercast.15 mph61%30.07 "Hg10 mi
7:56 pm45 °FPassing clouds.7 mph71%30.04 "Hg10 mi
6:56 pm46 °FOvercast.8 mph68%30.00 "Hg10 mi
5:56 pm46 °FLight rain. Overcast.13 mph71%29.99 "Hg10 mi
4:56 pm49 °FLight rain. Mostly cloudy.8 mph52%29.99 "Hg10 mi
3:56 pm49 °FOvercast.9 mph52%30.00 "Hg10 mi
2:56 pm49 °FOvercast.13 mph50%29.99 "Hg10 mi
1:56 pm50 °FPassing clouds.14 mph43%30.00 "Hg10 mi
12:56 pm49 °FScattered clouds.14 mph41%30.02 "Hg10 mi
11:56 am48 °FPartly sunny.14 mph43%30.06 "Hg10 mi
10:56 am44 °FPassing clouds.12 mph49%30.11 "Hg10 mi
9:56 am38 °FOvercast.6 mph63%30.15 "Hg10 mi
8:56 am34 °FOvercast.7 mph73%30.17 "Hg10 mi
7:56 am32 °FSunny.6 mph75%30.18 "Hg10 mi
6:56 am31 °FClear.5 mph79%30.17 "Hg10 mi
5:56 am32 °FPassing clouds.5 mph69%30.17 "Hg10 mi
4:56 am32 °FOvercast.3 mph66%30.16 "Hg10 mi
Weather by CustomWeather, © 2019

See weather overview

Advertising